This is the latest recevied weather packets stored in our database for station/object KS5S. If no packets are shown the sender has not sent any weather packets the latest 10 day(s).
| Time | Temp. | Humidity | Pressure | Rain* | Wind** | Luminosity | Snow |
|---|---|---|---|---|---|---|---|
| 1777759943 | 25° C | 35% | 1017.3 hPa | 0 mm | - | 546 W/m² | - |
| 1777759639 | 25.56° C | 35% | 1017.4 hPa | 0 mm | - | 592 W/m² | - |
| 1777759336 | 26.11° C | 34% | 1017.5 hPa | 0 mm | - | 178 W/m² | - |
| 1777759033 | 25.56° C | 34% | 1017.4 hPa | 0 mm | - | 605 W/m² | - |
| 1777758730 | 25.56° C | 34% | 1017.4 hPa | 0 mm | - | 563 W/m² | - |
| 1777758427 | 25.56° C | 34% | 1017.5 hPa | 0 mm | - | 643 W/m² | - |
| 1777758124 | 25° C | 37% | 1017.7 hPa | 0 mm | - | 669 W/m² | - |
| 1777757821 | 25° C | 36% | 1017.5 hPa | 0 mm | - | 674 W/m² | - |
| 1777757518 | 25° C | 35% | 1017.5 hPa | 0 mm | - | 697 W/m² | - |
| 1777757217 | 25.56° C | 39% | 1017.7 hPa | 0 mm | - | 711 W/m² | - |
| 1777756915 | 25° C | 38% | 1017.7 hPa | 0 mm | - | 747 W/m² | - |
| 1777756610 | 25° C | 34% | 1018.1 hPa | 0 mm | - | 633 W/m² | - |
| 1777756308 | 24.44° C | 35% | 1018 hPa | 0 mm | - | 161 W/m² | - |
| 1777756005 | 25° C | 38% | 1018 hPa | 0 mm | - | 809 W/m² | - |
| 1777755702 | 25° C | 36% | 1018.1 hPa | 0 mm | - | 798 W/m² | - |
| 1777755399 | 25.56° C | 38% | 1018.2 hPa | 0 mm | - | 805 W/m² | - |
| 1777755095 | 25° C | 34% | 1018.3 hPa | 0 mm | - | 825 W/m² | - |
| 1777754792 | 24.44° C | 37% | 1018.4 hPa | 0 mm | - | 831 W/m² | - |
| 1777754490 | 25° C | 36% | 1018.2 hPa | 0 mm | - | 845 W/m² | - |
| 1777754186 | 25° C | 35% | 1018.3 hPa | 0 mm | - | 856 W/m² | - |
| 1777753884 | 24.44° C | 33% | 1018.3 hPa | 0 mm | - | 863 W/m² | - |
| 1777753579 | 24.44° C | 32% | 1018.5 hPa | 0 mm | - | 878 W/m² | - |
| 1777753278 | 24.44° C | 36% | 1018.3 hPa | 0 mm | - | 887 W/m² | - |
| 1777752974 | 24.44° C | 40% | 1018.5 hPa | 0 mm | - | 896 W/m² | - |
| 1777752670 | 24.44° C | 37% | 1018.3 hPa | 0 mm | - | 903 W/m² | - |
* Rain latest hour (hover to see other rain measurements)
** Current wind speed in m/s (hover to see current wind gust speed)